GPS BIIF-12 (41328 NORAD) Tracking and Keplerian Element Data

This shows tracking and keplerian element data for the satellite.

Feedback or suggestion? Click here.




ElementValue
Catalog41328
NameGPS BIIF-12
Epoch Orbit1794
Epoch Day201.09530108
Epoch Year2018
RAAN204.1831
Inclination54.838
Eccentricity0.0024153
Argument of Perigee219.8171
Mean Anonmoly140.0245
Mean Motion2.00561954
Decay Rate7.5E-07
L11 41328U 16007A 18201.09530108 .00000075 00000-0 00000+0 0 9991
L22 41328 54.8380 204.1831 0024153 219.8171 140.0245 2.00561954 17940

Live tracking and technical data element details for GPS BIIF-12 (NORAD 41328). GPS BIIF-12 can be tracked NOW for your location showing map with azimuth and elevation plus other details from your city location.

Track the satellite on the map from your city or location and see movement details for azimuth, elevation, latitude, longitude, range, height, and movement on the map or in text.







IsCatalogInMostPopularTable: catalog: 41328, numindb: 60
Update: records affected: 1



GetName: 41328 GPS BIIF-12

Hit Count: updated at: Mon, 23 Jul 2018 07:25:49 GMT